{"data":{"norad_id":57809,"intl_designator":"2023-138B","name":"STARLINK-30374","alt_names":[],"object_type":"PAYLOAD","status":"ACTIVE","operator":null,"country":"US","launch_date":"2023-09-09","launch_site_code":"AFETR","launch_vehicle":null,"mission":null,"orbit_class":"UNKNOWN","rcs_meters":null,"size_class":null,"mass_kg":null,"dimensions":null,"purposes":["comms"],"wikipedia_slug":null,"has_3d_model":false,"image_url":null,"decayed_at":null,"tle_current":{"epoch":"2026-05-25T01:47:38.064768Z","epoch_age_seconds":78802,"freshness":"FRESH","line1":"1 57809U 23138B   26145.07474612 -.00002666  00000+0 -87403-4 0  9992","line2":"2 57809  43.0018 162.5265 0001513 278.4008  81.6672 15.27567102150421","mean_motion":15.27567102,"eccentricity":0.0001513,"inclination_deg":43.0018,"raan_deg":162.5265,"arg_perigee_deg":278.4008,"mean_anomaly_deg":81.6672,"bstar":-8.7403e-5,"rev_number":15042,"period_min":94.267544654153,"perigee_km":482.04961426366,"apogee_km":484.1258208632,"semimajor_km":6861.2247175634,"source":"CELESTRAK","updated_at":"2026-05-25T13:38:18.408292Z"}}}